Regional Weather Roundup
Issued by NWS

Home | Current Version | Previous Version | Graphics & Text | Print | Product List | Glossary Off
Versions: 1 2 3 4 5 6 7 8 9 10 11 12 13 14 15 16 17 18 19 20 21 22 23 24 25 26 27 28 29 30 31 32 33 34 35 36 37 38 39 40 41 42 43 44 45 46 47 48 49 50

000
ASUS43 KMKX 231600
RWRWI

WISCONSIN REGIONAL WEATHER ROUNDUP
NATIONAL WEATHER SERVICE MILWAUKEE/SULLIVAN WI
1100 AM CDT MON OCT 23 2017

NOTE: "FAIR" INDICATES FEW OR NO CLOUDS BELOW 12,000 FEET WITH NO
SIGNIFICANT WEATHER AND/OR OBSTRUCTIONS TO VISIBILITY.

WIZ001-002-006>008-014>016-023>028-231700-
NORTHWEST WISCONSIN

CITY           SKY/WX    TMP DP  RH WIND       PRES   REMARKS
SUPERIOR ARPT  SUNNY     58  39  50 SW10      29.69R
ASHLAND        CLOUDY    55  39  54 SW15G22   29.71F
HAYWARD        CLOUDY    53  38  56 S12       29.73F
SIREN          MOSUNNY   56  38  51 W8        29.73S
CUMBERLAND     PTSUNNY   50  37  62 SW9       29.75S
RICE LAKE      PTSUNNY   52  38  59 SW9       29.76S
CHETEK         PTSUNNY   53  40  63 SW5       29.76R
LADYSMITH      CLOUDY    50  41  72 S9        29.77F
EAU CLAIRE     NOT AVBL
MENOMONIE      PTSUNNY   53  39  58 SW9G16    29.77R
NEW RICHMOND   PTSUNNY   55  38  51 SW8       29.76S
OSCEOLA        PTSUNNY   57  41  55 W10       29.78F
$$

WIZ003>005-009-010-017-018-231700-
NORTH CENTRAL WISCONSIN

CITY           SKY/WX    TMP DP  RH WIND       PRES   REMARKS
MANITOWISH WTR CLOUDY    48  41  77 S6        29.75F
ARBOR VITAE    CLOUDY    52  42  70 SW8       29.76F
WOODRUFF       CLOUDY    52  42  70 SW8       29.76F
RHINELANDER    CLOUDY    52  38  58 S8        29.76F
EAGLE RIVER    NOT AVBL
LAND O LAKES   CLOUDY    53  39  59 S9        29.78F
PHILLIPS       MOSUNNY   51  40  66 S10       29.75F
TOMAHAWK       CLOUDY    47  40  77 CALM      29.77F
MEDFORD        CLOUDY    46  41  81 S10       29.76F
MERRILL        CLOUDY    50  42  74 CALM      29.79F
$$

WIZ029-030-035-036-043>047-231700-
CENTRAL WISCONSIN

CITY           SKY/WX    TMP DP  RH WIND       PRES   REMARKS
WAUSAU         CLOUDY    48  42  80 SE9       29.79F
MOSINEE        PTSUNNY   46  46 100 S8        29.82F
MARSHFIELD     CLOUDY    52  41  66 S8        29.77F
STEVENS POINT  MOSUNNY   47  42  84 S7        29.83S
WAUPACA        CLOUDY    46  45  97 CALM      29.86R FOG
WAUTOMA        CLOUDY   N/A N/A N/A MISG        N/A
WISC RAPIDS    PTSUNNY   48  44  86 S5        29.81F
CAMP DOUGLAS   NOT AVBL
$$

WIZ011>013-019>022-031-037>040-048>050-231700-
NORTHEAST WISCONSIN

CITY           SKY/WX    TMP DP  RH WIND       PRES   REMARKS
ANTIGO         MOSUNNY   47  39  76 S7        29.82F
SHAWANO        CLOUDY    46  44  96 CALM      29.84F
OCONTO         CLOUDY    46  46 100 SE3       29.83F VSB 1/4
STURGEON BAY   CLOUDY    50  46  86 E3        29.84F
GREEN BAY      CLOUDY    49  49 100 CALM      29.84F FOG
MANITOWOC      CLOUDY    48  46  93 N3        29.85F
APPLETON       PTSUNNY   46  46 100 CALM      29.82F
CLINTONVILLE   CLOUDY    45  45 100 CALM      29.85R FOG
OSHKOSH        CLOUDY    50  45  83 CALM      29.83F
$$

WIZ032>034-041-042-053>061-231700-
SOUTHWEST WISCONSIN

CITY           SKY/WX    TMP DP  RH WIND       PRES   REMARKS
LA CROSSE      CLOUDY    54  43  66 SW13      29.79F
SPARTA         MOSUNNY   52  42  68 S3        29.79F
VIROQUA        CLOUDY    50  44  79 SW8       29.80F
BOSCOBEL       CLOUDY    46  45  96 CALM      29.81F
PRAIRIE DU CHI CLOUDY    50  45  81 CALM      29.81F
PLATTEVILLE    CLOUDY    50  49  94 S6        29.83F
$$

WIZ056-057-062-063-064-067-068-231700-
SOUTH CENTRAL WISCONSIN

CITY           SKY/WX    TMP DP  RH WIND       PRES   REMARKS
REEDSBURG      CLOUDY    48  44  87 SE3       29.84F
BARABOO/DELLS  CLOUDY    47  46  96 CALM      29.84F
LONE ROCK      CLOUDY    46  46 100 E6        29.84F
MINERAL POINT  CLOUDY    48  48 100 S5        29.83F
MADISON        CLOUDY    51  48  89 CALM      29.83F
MIDDLETON      CLOUDY    49  49 100 CALM      29.85F
WATERTOWN      CLOUDY    47  47 100 CALM      29.84F
MONROE         CLOUDY    50  43  76 W7        29.84F
JANESVILLE     CLOUDY    50  50 100 CALM      29.84F
$$

WIZ051-052-058>065-066-070>072-231700-
SOUTHEAST WISCONSIN

CITY           SKY/WX    TMP DP  RH WIND       PRES   REMARKS
MILWAUKEE      CLOUDY    53  49  86 N6        29.83F
WAUKESHA       SUNNY     48  45  87 CALM      29.85F
MILWAUKEE/TIMM SUNNY     50  45  81 CALM      29.85S
RACINE         CLOUDY    52  51  97 N5        29.84F
BURLINGTON     PTSUNNY   49  49 100 CALM      29.84F
KENOSHA        CLOUDY    52  49  89 N5        29.82F
FOND DU LAC    CLOUDY    50  46  86 CALM      29.83F
SHEBOYGAN      CLOUDY    51  48  89 N3        29.83F
WEST BEND      CLOUDY    48  46  93 CALM      29.84S
JUNEAU         CLOUDY    46  46  99 CALM      29.84F
$$

LSZ147-162-231700-
LAKE SUPERIOR

STATION/POSITION TIME  TEMP    WIND        PRES    WAVE
                       AIR SEA DIR/SP/G            HT/PER
                 (UTC) (F)     (DEG/KT/KT) (MB)    (FT/S)
W MID LAKE BUOY  1450   52 51              1006.5R   3/ 5
DEVILS ISLAND    1500   54     190/  8/ 11 1005.9F
SAXON HARBOR     1530   56     190/ 10/ 19 1005.4F
$$

LMZ867-665-643>646-231700-
LAKE MICHIGAN

STATION/POSITION TIME  TEMP    WIND        PRES    WAVE
                       AIR SEA DIR/SP/G            HT/PER
                 (UTC) (F)     (DEG/KT/KT) (MB)    (FT/S)
S GREEN BAY BUOY 1530   49 58  300/  2/  2 1010.6F
N MID LAKE BUOY  1450   52 57  210/  2/  2 1012.3F   0
NORTHPORT PIER   1540   51     150/  2/  4 1010.5F
KEWAUNEE LAKESHO 1530   49     320/  1/  3 1009.8F
SHEBOYGAN LAKESH 1500   48     340/  7/  8 1010.7F
PORT WASHINGTON  1530   52     330/  2/  3 1011.5S
MILWAUKEE LAKESH 1550   51      10/  4/  5   N/A
S MID LAKE BUOY  1450   55 60   30/ 16/ 17 1010.3S   4/ 5
KENOSHA   LAKESH 1500   52      20/  7/  8 1010.5
$$

TC  - TEMPERATURE IN CELSIUS
VSB - VISIBILITY IN STATUTE MILES
WCI - WIND CHILL INDEX
HX  - HEAT INDEX





USA.gov is the U.S. government's official web portal to all federal, state and local government web resources and services.